CAPE
0 0 0 0 0 0 0 0 0 0 0 0 0 0 0 0 0 0 0 0 0 0 0 0 0 0 0 0 0 0 0 0 0 0 0 0 0 0 0 0 0 0 0
0 0 0 0 0 0 0 0 0 0 0 0 0 0 0 0 0 0 0 0 0 0 0 0 0 0 0 0 0 0 0 0 0 0 0 0 0 0 0 0 0 0 0
0 0 0 0 0 0 0 0 0 0 0 0 0 0 0 0 0 0 0 0 0 0 0 0 0 0 0 0 0 0 0 0 0 0 0 0 0 0 0 0 0 0 0
0 0 0 0 0 0 0 0 0 0 0 0 0 0 0 0 0 0 0 0 0 0 0 0 0 0 0 0 0 0 0 0 0 0 0 0 0 0 0 0 0 0 0
0 0 0 0 0 0 0 0 0 0 0 0 0 0 0 0 0 0 0 0 0 0 0 0 0 0 0 0 0 0 0 0 0 0 0 0 0 0 0 0 0 0 0
0 0 0 0 0 0 0 0 0 0 0 0 0 0 0 0 0 0 0 0 0 0 0 0 0 0 0 0 0 0 0 0 0 0 0 0 0 0 0 0 0 0 0
0 0 0 0 0 0 0 0 0 0 0 0 0 0 0 0 0 0 0 0 0 0 0 0 0 0 0 0 0 0 0 0 0 0 0 0 0 0 0 0 0 0 0
0 0 0 0 0 0 0 0 0 0 0 0 0 0 0 0 0 0 0 0 0 0 0 0 0 0 0 0 0 0 0 0 0 0 0 0 0 0 0 0 0 0 0
0 0 0 0 0 0 0 0 0 0 0 0 0 0 0 0 0 0 0 0 0 0 0 0 0 0 0 0 0 0 0 0 0 0 0 0 0 0 0 0 0 0 0
0 0 0 0 0 0 0 0 0 0 0 0 0 0 0 0 0 0 0 0 0 0 0 0 0 0 0 0 0 0 0 0 0 0 0 0 0 0 0 0 0 0 0
0 0 0 0 0 0 0 0 0 0 0 0 0 0 0 0 0 0 0 0 0 0 0 0 0 0 0 0 0 0 0 0 0 0 0 0 0 0 0 0 0 0 0
0 0 0 0 0 0 0 0 0 0 0 0 0 0 0 0 0 0 0 0 0 0 0 0 0 0 0 0 0 0 0 0 0 0 0 0 0 0 0 0 0 0 0
0 0 0 0 0 0 0 0 0 0 0 0 0 0 0 0 0 0 0 0 0 0 0 0 0 0 0 0 0 0 0 0 0 0 0 0 0 0 0 0 0 0 0
0 0 0 0 0 0 0 0 0 0 0 0 0 0 0 0 0 0 0 0 0 0 0 0 0 0 0 0 0 0 0 0 0 0 0 0 0 0 0 0 0 0 0
0 0 0 0 0 0 0 0 0 0 0 0 0 0 0 0 0 0 0 0 0 0 0 0 0 0 0 0 0 0 0 0 0 0 0 0 0 0 0 0 0 0 0
0 0 0 0 0 0 0 0 0 0 0 0 0 0 0 0 0 0 0 0 0 0 0 0 0 0 0 0 0 0 0 0 0 0 0 0 0 0 0 0 0 0 0
0 0 0 0 0 0 0 0 0 0 0 0 0 0 0 0 0 0 0 0 0 0 0 0 0 0 0 0 0 0 0 0 0 0 0 0 0 0 0 0 0 0 0
0 0 0 0 0 0 0 0 0 0 0 0 0 0 0 0 0 0 0 0 0 0 0 0 0 0 0 0 0 0 0 0 0 0 0 0 0 0 0 0 0 0 0
0 0 0 0 0 0 0 0 0 0 0 0 0 0 0 0 0 0 0 0 0 0 0 0 0 0 0 0 0 0 0 0 0 0 0 0 0 0 0 0 0 0 0
0 0 0 0 0 0 0 0 0 0 0 0 0 0 0 0 0 0 0 0 0 0 0 0 0 0 0 0 0 0 0 0 0 0 0 0 0 0 0 0 0 0 0
0 0 0 0 0 0 0 0 0 0 0 0 0 0 0 0 0 0 0 0 0 0 0 0 0 0 0 0 0 0 0 0 0 0 0 0 0 0 0 0 0 0 0
0 0 0 0 0 0 0 0 0 0 0 0 0 0 0 0 0 0 0 0 0 0 0 0 0 0 0 0 0 0 0 0 0 0 0 0 0 0 0 0 0 0 0
0 0 0 0 0 0 0 0 0 0 0 0 0 0 0 0 0 0 0 0 0 0 0 0 0 0 0 0 0 0 0 0 0 0 0 0 0 0 0 0 0 0 0
0 0 0 0 0 0 0 0 0 0 0 0 0 0 0 0 0 0 0 0 0 0 0 0 0 0 0 0 0 0 0 0 0 0 0 0 0 0 0 0 0 0 0
0 0 0 0 0 0 0 0 0 0 0 0 0 0 0 0 0 0 0 0 0 0 0 0 0 0 0 0 0 0 0 0 0 0 0 0 0 0 0 0 0 0 0
0 0 0 0 0 0 0 0 0 0 0 0 0 0 0 0 0 0 0 0 0 0 0 0 0 0 0 0 0 0 0 0 0 0 0 0 0 0 0 0 0 0 0
CIN
0 0 0 0 0 0 0 0 0 0 0 0 0 0 0 0 0 0 0 0 0 0 0 0 0 0 0 0 0 0 0 0 0 0 0 0 0 0 0 0 0 0 0
0 0 0 0 0 0 0 0 0 0 0 0 0 0 0 0 0 0 0 0 0 0 0 0 0 0 0 0 0 0 0 0 0 0 0 0 0 0 0 0 0 0 0
0 0 0 0 0 0 0 0 0 0 0 0 0 0 0 0 0 0 0 0 0 0 0 0 0 0 0 0 0 0 0 0 0 0 0 0 0 0 0 0 0 0 0
0 0 0 0 0 0 0 0 0 0 0 0 0 0 0 0 0 0 0 0 0 0 0 0 0 0 0 0 0 0 0 0 0 0 0 0 0 0 0 0 0 0 0
0 0 0 0 0 0 0 0 0 0 0 0 0 0 0 0 0 0 0 0 0 0 0 0 0 0 0 0 0 0 0 0 0 0 0 0 0 0 0 0 0 0 0
0 0 0 0 0 0 0 0 0 0 0 0 0 0 0 0 0 0 0 0 0 0 0 0 0 0 0 0 0 0 0 0 0 0 0 0 0 0 0 0 0 0 0
0 0 0 0 0 0 0 0 0 0 0 0 0 0 0 0 0 0 0 0 0 0 0 0 0 0 0 0 0 0 0 0 0 0 0 0 0 0 0 0 0 0 0
0 0 0 0 0 0 0 0 0 0 0 0 0 0 0 0 0 0 0 0 0 0 0 0 0 0 0 0 0 0 0 0 0 0 0 0 0 0 0 0 0 0 0
0 0 0 0 0 0 0 0 0 0 0 0 0 0 0 0 0 0 0 0 0 0 0 0 0 0 0 0 0 0 0 0 0 0 0 0 0 0 0 0 0 0 0
0 0 0 0 0 0 0 0 0 0 0 0 0 0 0 0 0 0 0 0 0 0 0 0 0 0 0 0 0 0 0 0 0 0 0 0 0 0 0 0 0 0 0
0 0 0 0 0 0 0 0 0 0 0 0 0 0 0 0 0 0 0 0 0 0 0 0 0 0 0 0 0 0 0 0 0 0 0 0 0 0 0 0 0 0 0
0 0 0 0 0 0 0 0 0 0 0 0 0 0 0 0 0 0 0 0 0 0 0 0 0 0 0 0 0 0 0 0 0 0 0 0 0 0 0 0 0 0 0
0 0 0 0 0 0 0 0 0 0 0 0 0 0 0 0 0 0 0 0 0 0 0 0 0 0 0 0 0 0 0 0 0 0 0 0 0 0 0 0 0 0 0
0 0 0 0 0 0 0 0 0 0 0 0 0 0 0 0 0 0 0 0 0 0 0 0 0 0 0 0 0 0 0 0 0 0 0 0 0 0 0 0 0 0 0
0 0 0 0 0 0 0 0 0 0 0 0 0 0 0 0 0 0 0 0 0 0 0 0 0 0 0 0 0 0 0 0 0 0 0 0 0 0 0 0 0 0 0
0 0 0 0 0 0 0 0 0 0 0 0 0 0 0 0 0 0 0 0 -1 -1 0 0 0 0 0 0 0 0 0 0 0 0 0 0 0 0 0 0 0 0 0
0 0 0 0 0 0 0 0 0 0 0 0 0 0 0 0 0 0 0 0 0 0 0 0 0 0 0 0 0 0 0 0 0 0 0 0 0 0 0 0 0 0 0
0 0 0 0 0 0 0 0 0 0 0 0 0 0 0 0 0 0 0 0 0 0 0 0 0 0 0 0 0 0 0 0 0 0 0 0 0 0 0 0 0 0 0
0 0 0 0 0 0 0 0 0 0 0 0 0 0 0 0 0 0 0 0 0 0 0 0 0 0 0 0 0 0 0 0 0 0 0 0 0 0 0 0 0 0 0
0 0 0 0 0 0 0 0 0 0 0 0 0 0 0 0 0 0 0 0 0 0 0 0 0 0 0 0 0 0 0 0 0 0 0 0 0 0 0 0 0 0 0
0 0 0 0 0 0 0 0 0 0 0 0 0 0 0 0 0 0 0 0 0 0 0 0 0 0 0 0 0 0 0 0 0 0 0 0 0 0 0 0 0 0 0
0 0 0 0 0 0 0 0 0 0 0 0 0 0 0 0 0 0 0 0 0 0 0 0 0 0 0 0 0 0 0 0 0 0 0 0 0 0 0 0 0 0 0
0 0 0 0 0 0 0 0 0 0 0 0 0 0 0 0 0 0 0 0 0 0 0 0 0 0 0 0 0 0 0 0 0 0 0 0 0 0 0 0 0 0 0
0 0 0 0 0 0 0 0 0 0 0 0 0 0 0 0 0 0 0 0 0 0 0 0 0 0 0 0 0 0 0 0 0 0 0 0 0 0 0 0 0 0 0
0 0 0 0 0 0 0 0 0 0 0 0 0 0 0 0 0 0 0 0 0 0 0 0 0 0 0 0 0 0 0 0 0 0 0 0 0 0 0 0 0 0 0
0 0 0 0 0 0 0 0 0 0 0 0 0 0 0 0 0 0 0 0 0 0 0 0 0 0 0 0 0 0 0 0 0 0 0 0 0 0 0 0 0 0 0
Wind_Speed
16 16 17 17 18 18 19 20 21 22 22 23 23 24 25 26 26 26 26 26 25 25 24 24 24 23 23 23 22 23 23 23 26 26 25 30 31 35 35 37 36 37 38
17 18 19 19 19 20 21 22 22 23 24 24 24 25 25 26 25 26 26 24 24 24 23 23 23 22 22 23 23 24 25 25 28 31 30 31 33 35 38 38 38 37 40
20 20 21 21 21 22 23 23 23 23 24 24 24 25 25 25 25 24 24 23 23 23 23 23 23 23 24 24 25 26 27 27 28 32 34 32 33 35 40 38 39 39 40
20 21 21 22 23 23 24 24 24 24 24 24 24 24 24 24 23 23 22 22 23 23 23 23 23 24 25 25 26 28 29 30 31 33 34 35 36 38 38 43 45 42 45
21 22 23 23 23 23 24 24 24 24 24 23 23 23 23 23 23 22 22 23 23 23 23 23 24 24 25 26 28 30 30 32 32 34 35 36 38 41 43 43 45 46 43
24 25 23 23 24 24 24 24 24 24 23 22 22 22 23 24 23 22 22 23 23 23 24 23 23 25 27 28 29 29 29 32 34 35 35 38 39 40 42 44 45 48 47
24 25 25 24 25 25 24 24 24 24 23 23 23 23 24 23 22 22 21 22 22 23 24 24 25 25 27 29 30 29 29 29 30 33 36 37 40 40 42 44 44 45 46
25 25 25 25 25 23 22 22 22 22 22 22 23 23 23 22 21 21 20 20 21 22 22 23 25 27 29 31 32 32 32 31 32 32 34 35 36 38 39 41 43 44 46
23 23 23 22 21 18 19 19 20 21 22 22 22 22 22 21 19 20 19 20 22 23 23 24 25 27 30 32 33 33 32 31 31 32 34 35 35 35 37 39 43 47 48
22 21 19 18 18 17 18 19 21 21 22 22 24 22 21 22 19 19 20 21 23 24 25 24 26 29 31 31 32 32 34 34 35 35 35 35 35 35 36 37 40 45 46
19 18 17 16 16 17 18 19 21 22 24 25 25 23 23 22 22 21 21 24 26 26 26 26 27 28 30 32 32 32 33 33 34 34 35 35 35 35 35 37 37 39 42
18 18 17 18 19 20 21 22 23 24 25 25 25 24 23 23 22 23 24 25 25 26 27 28 28 30 32 33 31 31 32 32 33 34 35 35 36 37 37 37 37 37 36
22 22 22 21 21 21 22 23 24 24 24 25 25 25 24 22 23 23 25 25 26 28 28 26 26 29 30 30 29 30 29 30 32 34 36 36 35 36 37 36 36 37 37
24 24 22 23 22 23 23 22 23 25 25 25 25 25 24 23 24 24 24 25 25 26 25 25 26 28 28 28 29 29 29 30 32 34 35 35 35 36 37 37 39 39 41
23 23 23 23 22 22 22 21 22 21 21 21 21 21 21 23 23 22 23 24 25 25 23 25 27 29 29 29 29 29 30 31 33 33 35 36 37 37 38 37 38 40 40
25 25 25 22 22 21 19 18 18 19 19 20 19 19 21 22 22 22 21 23 23 20 23 25 28 28 30 30 31 32 32 32 33 33 34 36 37 38 39 38 38 39 41
26 25 23 21 20 19 17 17 17 16 16 16 16 17 18 20 19 21 22 21 22 20 25 27 29 30 32 32 32 32 33 32 32 33 35 36 36 36 38 39 39 39 40
26 24 23 23 20 19 18 18 16 16 17 17 17 16 16 17 18 19 20 22 24 24 26 29 31 31 31 32 32 32 33 34 34 34 34 35 35 36 38 38 38 39 40
25 24 24 22 21 20 19 18 17 16 15 15 15 16 17 19 20 21 22 25 27 29 29 30 30 31 32 32 32 32 32 33 33 34 34 34 34 35 37 37 37 38 39
24 23 22 21 19 18 17 16 15 14 14 15 16 17 19 22 24 25 26 27 28 29 29 31 31 30 32 32 32 32 33 33 33 33 33 33 33 33 35 36 37 39 38
22 22 20 18 17 16 15 14 14 15 16 17 18 19 21 23 27 27 28 28 29 30 30 30 31 31 31 32 32 32 32 33 33 33 32 33 33 33 34 34 36 36 37
16 15 14 14 12 13 14 15 15 16 17 19 21 22 23 25 27 29 30 29 29 30 30 30 31 31 31 31 31 32 32 32 32 31 31 31 32 32 33 35 36 36 37
12 11 11 12 14 14 15 15 16 18 20 22 24 26 27 29 29 30 31 30 30 31 30 30 30 31 29 29 28 29 30 30 30 29 30 31 31 32 33 35 36 36 37
11 12 14 15 15 16 16 17 19 21 23 25 27 28 29 29 31 32 32 31 31 31 30 29 29 30 30 30 28 27 27 27 27 28 28 29 31 32 33 34 35 35 36
14 14 15 15 16 17 19 21 23 25 26 27 28 29 30 31 32 33 32 32 32 32 31 29 29 29 30 29 29 28 27 27 27 27 28 28 30 32 33 33 34 34 34
15 17 18 19 20 22 24 25 26 26 28 29 30 31 32 33 33 33 33 32 32 31 31 31 30 29 29 29 29 29 29 29 29 28 27 28 29 31 31 32 32 33 34
Wind_Direction
286 287 290 295 300 302 304 305 307 309 312 313 316 317 319 321 323 324 325 326 326 327 328 328 329 331 330 331 332 331 329 327 318 320 324 326 328 329 330 330 331 330 330
287 288 290 294 298 302 304 305 307 308 310 311 313 315 317 319 321 322 323 326 326 326 328 329 329 330 330 330 330 328 326 326 320 316 321 323 324 327 327 327 328 330 329
286 287 288 291 296 300 303 305 307 308 309 310 311 312 314 317 319 322 324 325 327 327 328 328 328 327 326 326 326 324 324 323 322 318 318 322 323 325 324 326 327 327 329
287 286 287 290 294 299 302 305 307 308 308 309 310 311 313 315 318 320 322 324 325 326 327 328 327 326 325 324 323 323 322 319 319 318 318 319 321 324 325 322 322 326 324
285 285 287 292 296 299 301 303 305 306 308 308 309 311 313 313 314 315 317 318 320 321 324 325 327 328 327 326 323 321 321 319 318 318 318 319 320 321 322 323 322 322 324
283 285 288 290 293 296 299 300 303 304 306 307 307 309 311 313 313 313 314 314 317 318 319 322 324 325 324 324 323 322 321 319 318 318 318 318 320 322 323 323 323 321 320
286 287 287 288 291 294 296 298 300 301 303 302 304 306 308 312 314 315 314 315 315 316 318 319 320 322 323 322 322 322 322 323 323 321 319 319 320 323 323 322 322 322 321
289 289 289 288 290 292 294 296 299 300 300 301 301 303 306 309 313 315 316 317 318 318 319 318 318 318 320 319 319 319 319 320 321 322 322 323 324 324 324 323 322 322 322
291 290 290 288 288 287 288 291 295 296 297 297 298 298 300 304 307 311 313 313 315 316 317 317 317 316 317 318 318 318 319 319 324 324 323 324 326 328 328 326 324 324 322
295 296 295 291 287 283 285 288 292 293 294 296 296 296 298 300 303 307 309 309 310 312 313 315 316 315 316 319 318 318 318 318 320 320 322 324 326 328 329 329 327 325 324
301 302 299 295 289 287 288 289 289 291 293 293 294 295 296 298 300 303 306 306 308 309 310 312 314 316 318 319 319 318 317 319 319 322 323 325 327 328 329 330 330 328 326
302 302 300 296 295 293 291 293 292 291 291 291 292 293 294 296 297 299 303 306 309 310 310 311 313 313 316 317 318 319 320 321 321 322 324 324 325 326 328 329 330 331 329
301 301 300 299 298 294 290 290 290 289 290 290 289 289 291 294 296 299 301 304 308 310 310 312 314 315 318 319 321 322 324 323 322 322 322 323 325 326 328 329 330 330 330
297 298 298 296 295 294 293 292 290 289 289 289 289 289 291 292 295 299 302 305 306 311 312 316 316 317 320 321 321 322 323 323 322 321 322 324 326 327 327 329 329 330 329
296 296 296 296 294 293 295 293 292 293 290 289 289 290 290 293 296 300 303 305 308 309 312 314 314 316 318 319 320 320 321 321 321 322 322 323 324 325 326 329 329 329 328
292 294 293 292 293 294 295 297 300 297 296 296 294 294 298 301 300 302 304 306 309 311 315 315 315 317 316 317 317 318 319 319 320 321 322 322 322 323 325 327 328 328 327
291 293 291 290 292 290 291 291 295 303 303 302 301 301 302 302 304 306 307 309 313 312 312 313 313 314 314 315 315 316 317 319 321 321 320 321 322 323 324 325 327 327 326
290 289 290 290 287 287 286 289 293 291 293 297 303 305 306 308 309 309 310 313 312 312 312 312 312 314 314 314 315 315 317 318 319 319 320 321 321 322 323 324 325 325 325
289 290 289 289 287 287 288 290 293 294 295 297 301 307 311 311 311 311 311 310 308 308 309 310 312 313 313 314 315 315 316 317 318 318 319 319 321 322 322 323 324 324 324
291 290 289 287 286 285 286 287 290 291 294 296 297 301 307 310 308 309 311 311 311 310 311 311 312 313 313 314 314 314 315 316 316 317 318 319 320 321 322 323 323 323 325
291 290 287 285 284 284 285 287 291 294 296 299 302 306 309 308 309 310 312 312 312 311 312 312 312 312 313 313 313 314 314 315 316 316 317 319 320 320 321 322 322 324 324
290 288 287 283 284 286 290 293 295 297 300 302 305 309 310 312 311 312 312 312 312 312 312 312 312 312 312 313 313 314 314 314 315 316 317 319 319 320 321 321 322 323 324
291 287 286 287 290 292 293 295 297 300 302 305 307 309 310 310 311 312 312 313 313 313 313 313 312 312 313 313 313 313 313 314 315 317 317 318 319 319 320 321 322 322 323
287 284 286 289 290 290 292 295 299 301 304 306 308 310 311 312 312 312 313 314 314 314 314 313 312 312 313 313 313 313 313 314 316 315 316 316 317 319 320 320 321 321 322
287 287 287 288 288 289 292 295 298 301 304 307 309 311 312 313 313 313 314 314 314 314 314 314 314 313 313 313 313 314 314 314 315 315 315 315 316 317 318 319 320 321 322
289 290 290 291 290 291 293 296 299 302 305 307 310 312 313 313 313 314 314 314 314 314 314 315 315 314 314 314 314 314 314 314 314 313 313 314 315 317 318 318 319 320 321